Location: Zagreb
(45.8000°N, 16.0000°E)
Time: 00:49:46
(UTC+01:00)

Transit 2A Rocket - Pass Details

Date: 05 October 2020
Orbit: 586 x 916 km, 66.7° (Epoch: 28 October)

Event Time Altitude Azimuth Distance (km) Brightness Sun altitude
Rises 15:26:06 0° 188° (S) 3,503 9.1 27.7°
Reaches altitude 10° 15:28:43 10° 182° (S) 2,585 8.5 27.4°
Maximum altitude 15:34:22 42° 113° (ESE) 1,284 6.3 26.7°
Drops below altitude 10° 15:40:02 10° 45° (NE) 2,590 7.3 25.9°
Sets 15:42:38 0° 39° (NE) 3,510 7.9 25.6°
